sat.trackr.live / text

‹ back to catalog

KUIPER-00032

NORAD 63745 · 2025-088X

PAYLOAD ACTIVE UNKNOWN

§ Identity

Operator
Country
US
Launch date
2025-04-28
Launch site
AFETR
Launch vehicle
Mass (kg)
RCS (m²)

External: N2YO · Heavens-Above · Gunter

§ Orbital elements

Epoch: 2026-09-20T23:39:07.943040Z

Period
93.35 min
Inclination
51.8657°
Eccentricity
0.0005265
Mean motion
15.42625309 rev/d
Perigee alt
434.8 km
Apogee alt
442.0 km
Semi-major
6,816.5 km
B*
2.5408e-4
RAAN
155.8439°
Arg perigee
96.5611°
Mean anomaly
263.5977°
Rev number
7,964

§ Raw data

KUIPER-000321 63745U 25088X   26263.98550860  .00010844  00000+0  25408-3 0  99962 63745  51.8657 155.8439 0005265  96.5611 263.5977 15.42625309 79642

JSON: /api/v1/satellites/63745 · /tle

For live sub-satellite position, see the globe view (requires WebGL).

§ Visibility from observer

Set your observer location to see the next 7 days of passes ≥ 10°. The values pass through the URL so the page stays shareable.

No JS? Fill the form by hand. The geolocation button needs JavaScript.